[[{"header":{"parameterUnit":"m.s-1","parameterCategory":2,"la1":30.2991,"la2":30.254,"lo1":-89.0895,"lo2":-89.0444,"dy":0.0017,"dx":0.0017,"nx":28,"ny":28,"refTime":"2025-04-06T03:00:00:Z","depth":"0","parameterNumber":2,"parameterNumberName":"U-component_of_CURRENTS"},"data":[0,0,0,0,0,0,0,0,0,0,0,0,0,0,0,0,0,0,0,0,0,0,0,0,0,0,0,0,0,0,0,0,0,0,0,0,0,0,0,0,0,0,0,0,0,0,0,0,0,0,0,0,0,0,0,0,0,0,0.2774,0.2775,0,0.2797,0.2797,0.2797,0.2787,0.2787,0.2787,0.2786,0.2788,0.2788,0.2789,0,0,0,0,0,0,0,0,0,0,0,0,0,0.2741,0.2742,0.2774,0.2775,0.2775,0.2797,0.2797,0.2797,0.2788,0.2787,0.2787,0.2786,0.2788,0.2788,0.2789,0,0,0,0,0,0,0,0,0,0,0,0,0,0.2757,0.2742,0.2774,0.2774,0.2775,0.2797,0.2797,0.2797,0.2788,0.2787,0.2786,0.2786,0.2788,0.2788,0.2789,0.2803,0,0,0.2791,0.2791,0,0,0,0,0,0,0,0,0.2756,0.2758,0.2774,0.2774,0.2775,0.279,0.2786,0.2799,0.2788,0.2781,0.2786,0.2786,0.2789,0.2789,0.2792,0.2804,0.2804,0.2791,0.2791,0.2791,0.2791,0,0,0,0,0,0,0,0.2755,0.2757,0.2781,0.2774,0.2775,0.278,0.2781,0.2789,0.2785,0.2781,0.2781,0.2787,0.2788,0.2791,0.2792,0.2804,0.2791,0.2791,0.2791,0.2792,0.2862,0.2863,0,0,0,0,0,0,0.2756,0.2756,0.278,0.2782,0.2766,0.2781,0.2782,0.2784,0.2786,0.2786,0.2787,0.2786,0.2791,0.2791,0.2792,0.2833,0.2791,0.2792,0.2792,0.286,0.2862,0.2864,0,0,0,0,0,0,0.2755,0.2758,0.278,0.2771,0.2775,0.2782,0.2785,0.2785,0.2793,0.2791,0.2791,0.2795,0.279,0.2791,0.281,0.2832,0.2792,0.2793,0.2858,0.2861,0.2863,0.2901,0,0,0,0,0,0,0.2754,0.2757,0.2759,0.2771,0.2775,0.28,0.2785,0.2786,0.2798,0.2797,0.2798,0.2797,0.279,0.281,0.2811,0.2832,0.2793,0.2856,0.2859,0.2862,0.2898,0.2904,0.291,0,0,0,0,0,0.2753,0.2758,0.2759,0.2762,0.2778,0.2801,0.2803,0.2805,0.2799,0.2808,0.2812,0.2797,0.2829,0.2811,0.2812,0.2835,0.2855,0.2859,0.2862,0.2895,0.2903,0.291,0,0,0,0,0,0,0.2743,0.2759,0.2759,0.2769,0.2787,0.28,0.2809,0.2812,0.2822,0.282,0.2813,0.2814,0.2841,0.2836,0.2817,0.2866,0.2841,0.2845,0.2866,0.2873,0.2879,0.2886,0.2793,0,0,0,0,0,0.2743,0.2752,0.277,0.2779,0.2789,0.2801,0.281,0.2815,0.2826,0.2829,0.2831,0.2838,0.2857,0.2862,0.2874,0.2897,0.2906,0.2914,0.292,0.2925,0.2934,0.2977,0.2987,0.2875,0.2875,0.2875,0,0,0.2741,0.2752,0.2756,0.2778,0.279,0.2812,0.2804,0.2825,0.2843,0.2829,0.2851,0.286,0.287,0.2898,0.291,0.2894,0.2962,0.293,0.2934,0.294,0.2981,0.2992,0.3002,0.2877,0.2877,0.2876,0,0,0.2746,0.2754,0.2765,0.2784,0.2809,0.2823,0.2832,0.2851,0.286,0.2885,0.2886,0.2911,0.2925,0.2944,0.2954,0.3002,0.2995,0.3005,0.3036,0.3078,0.3087,0.3095,0.3117,0.3127,0.3004,0.3004,0.3004,0,0.2744,0.2757,0.2773,0.2793,0.2809,0.283,0.285,0.287,0.2893,0.2912,0.2896,0.295,0.2951,0.3003,0.3017,0.3016,0.3031,0.3004,0.3085,0.3093,0.3101,0.3121,0.3132,0.3006,0.3006,0.3006,0.3006,0,0.2758,0.2772,0.2783,0.2814,0.2837,0.2859,0.2891,0.2916,0.2928,0.2951,0.3001,0.3011,0.3044,0.3051,0.3044,0.3108,0.3098,0.3089,0.3063,0.3115,0.3133,0.3143,0.301,0.3009,0.3008,0.3008,0,0,0.2736,0.2782,0.2784,0.2798,0.2848,0.2864,0.2912,0.296,0.2997,0.3023,0.3069,0.3105,0.3118,0.3131,0.3135,0.3165,0.3226,0.315,0.3151,0.3166,0.331,0.3288,0.3297,0.3232,0.3234,0.3236,0.3297,0,0.2739,0.2768,0.2797,0.283,0.2848,0.2891,0.2935,0.2986,0.3028,0.3081,0.3116,0.316,0.3148,0.3164,0.32,0.3226,0.3256,0.321,0.3263,0.3264,0.3235,0.331,0.3247,0.3296,0.3307,0.3309,0.331,0,0.2733,0.2756,0.2782,0.2835,0.2848,0.2875,0.2948,0.2993,0.3086,0.3126,0.3189,0.3216,0.3281,0.325,0.3332,0.3304,0.3313,0.3323,0.3326,0.3301,0.3263,0.3249,0.3314,0.3268,0.3326,0.3325,0.3324,0,0.2691,0.2741,0.2756,0.2774,0.2844,0.2866,0.2909,0.3001,0.3052,0.3157,0.3202,0.3287,0.3325,0.3366,0.3395,0.3369,0.3475,0.3439,0.3428,0.3425,0.338,0.337,0.3404,0.3494,0.3494,0.3494,0.3494,0,0.2673,0.2684,0.2734,0.2742,0.2776,0.2836,0.2892,0.296,0.3063,0.3132,0.3216,0.3284,0.3356,0.3419,0.3432,0.3478,0.3511,0.3455,0.3453,0.3391,0.3381,0.3345,0.3314,0.3496,0.3495,0.3495,0.3495,0,0.2621,0.2653,0.2674,0.2734,0.2753,0.2775,0.2867,0.2913,0.3025,0.3116,0.3149,0.3296,0.3395,0.3455,0.3534,0.3522,0.3475,0.3561,0.3476,0.3463,0.3387,0.3361,0.3178,0.3095,0.3558,0.3558,0.3558,0,0.2596,0.26,0.2648,0.2656,0.2678,0.2724,0.2759,0.2878,0.2935,0.312,0.3154,0.3294,0.3385,0.3513,0.3544,0.3586,0.3475,0.3528,0.3464,0.3399,0.3368,0.315,0.3078,0.3416,0.3415,0.3414,0.3413,0,0.2552,0.2564,0.2579,0.2597,0.2616,0.265,0.271,0.2754,0.29,0.2986,0.3117,0.3209,0.3374,0.3436,0.3518,0.3522,0.3376,0.3508,0.3473,0.3298,0.303,0.2945,0.3347,0.3405,0.3406,0.3407,0.3407,0.3407,0.2511,0.2504,0.2519,0.2526,0.2545,0.2559,0.256,0.2645,0.2725,0.284,0.3005,0.3118,0.3323,0.3446,0.3435,0.3408,0.33,0.3336,0.3321,0.3112,0.2992,0.337,0.3404,0.3405,0.3406,0.3406,0.3407,0,0.2452,0.2446,0.245,0.2442,0.2421,0.2466,0.2507,0.25,0.2544,0.2712,0.2818,0.3038,0.3151,0.3278,0.3348,0.3256,0.3054,0.318,0.2892,0.2842,0.3241,0.3202,0.3154,0.3154,0.3154,0.3154,0.3154,0.3154,0.2419,0.2388,0.2383,0.2318,0.2308,0.2251,0.2251,0.2266,0.2355,0.2472,0.2597,0.275,0.3035,0.3218,0.3202,0.313,0.2892,0.2743,0.2705,0.3064,0.3076,0.3088,0.3045,0.2966,0.2966,0.2182,0.2177,0.2173]},{"header":{"parameterUnit":"m.s-1","parameterCategory":2,"la1":30.2991,"la2":30.254,"lo1":-89.0895,"lo2":-89.0444,"dy":0.0017,"dx":0.0017,"nx":28,"ny":28,"refTime":"2025-04-06T03:00:00:Z","depth":"0","parameterNumber":3,"parameterNumberName":"V-component_of_CURRENTS"},"data":[0,0,0,0,0,0,0,0,0,0,0,0,0,0,0,0,0,0,0,0,0,0,0,0,0,0,0,0,0,0,0,0,0,0,0,0,0,0,0,0,0,0,0,0,0,0,0,0,0,0,0,0,0,0,0,0,0,0,0.0326,0.0326,0,0.0282,0.0281,0.0281,0.0247,0.0247,0.0247,0.0247,0.0182,0.0181,0.0179,0,0,0,0,0,0,0,0,0,0,0,0,0,0.0335,0.0335,0.0326,0.0326,0.0325,0.0282,0.0281,0.028,0.0247,0.0247,0.0247,0.0247,0.0183,0.0181,0.0179,0,0,0,0,0,0,0,0,0,0,0,0,0,0.0314,0.0335,0.0326,0.0305,0.0302,0.0282,0.0281,0.028,0.0247,0.0247,0.0247,0.0247,0.0183,0.0181,0.0179,0.017,0,0,0.0172,0.0171,0,0,0,0,0,0,0,0,0.0315,0.0313,0.0308,0.0306,0.0303,0.0271,0.0261,0.0243,0.0247,0.0267,0.0247,0.0246,0.0211,0.0207,0.0197,0.0167,0.0164,0.0171,0.017,0.0169,0.0168,0,0,0,0,0,0,0,0.0317,0.0315,0.0307,0.0308,0.0305,0.0281,0.0278,0.0257,0.024,0.0265,0.0263,0.026,0.0209,0.0199,0.0195,0.0163,0.0172,0.0169,0.0168,0.0167,0.0125,0.0125,0,0,0,0,0,0,0.0328,0.0317,0.0309,0.0306,0.031,0.0281,0.0278,0.0281,0.024,0.0234,0.026,0.0259,0.0204,0.0198,0.0193,0.0198,0.0169,0.0167,0.0166,0.0124,0.0125,0.0125,0,0,0,0,0,0,0.0328,0.0328,0.0311,0.0311,0.0307,0.0282,0.0285,0.028,0.0273,0.0237,0.0231,0.026,0.0203,0.0196,0.0182,0.0195,0.0166,0.0164,0.0124,0.0124,0.0125,0.0197,0,0,0,0,0,0,0.0329,0.0328,0.0332,0.0312,0.0308,0.0309,0.0285,0.0279,0.0272,0.027,0.0234,0.0228,0.0202,0.0185,0.0179,0.0191,0.0162,0.0124,0.0124,0.0125,0.0194,0.02,0.0205,0,0,0,0,0,0.0329,0.0343,0.0333,0.0332,0.0315,0.0309,0.0305,0.0285,0.0273,0.0276,0.0251,0.0229,0.0184,0.0184,0.0177,0.0188,0.0123,0.0124,0.0125,0.0192,0.0199,0.0205,0,0,0,0,0,0,0.0348,0.034,0.0329,0.0338,0.0328,0.0305,0.0305,0.029,0.0273,0.0269,0.0234,0.0226,0.0216,0.0191,0.0192,0.0176,0.0149,0.0149,0.0203,0.0209,0.0214,0.0232,0.016,0,0,0,0,0,0.0355,0.0362,0.0347,0.0354,0.0351,0.0328,0.0322,0.031,0.0293,0.0284,0.0259,0.0232,0.0212,0.0203,0.0178,0.0173,0.0143,0.0174,0.0179,0.0184,0.0192,0.0159,0.0163,0.0127,0.0127,0.0127,0,0,0.0363,0.036,0.0363,0.0358,0.0346,0.0356,0.0324,0.0323,0.033,0.028,0.028,0.0248,0.0213,0.0206,0.02,0.0189,0.0177,0.0185,0.0189,0.0195,0.016,0.0164,0.0167,0.0127,0.0127,0.0127,0,0,0.0391,0.0382,0.0399,0.0396,0.0388,0.0377,0.0381,0.0363,0.0353,0.0347,0.0313,0.0292,0.0261,0.0241,0.0227,0.0245,0.0203,0.0235,0.028,0.0248,0.0251,0.0253,0.0216,0.0215,0.0241,0.0241,0.0241,0,0.0401,0.0422,0.0402,0.0419,0.0426,0.0393,0.0417,0.0404,0.0382,0.0382,0.0357,0.0312,0.0279,0.0276,0.028,0.0258,0.0231,0.0262,0.0256,0.0257,0.0259,0.022,0.0218,0.0245,0.0244,0.0244,0.0244,0,0.0443,0.0459,0.047,0.0484,0.0487,0.0501,0.0486,0.0481,0.0462,0.0451,0.0436,0.0384,0.0362,0.0344,0.0317,0.0313,0.0287,0.0265,0.0245,0.0267,0.0224,0.022,0.025,0.0249,0.0247,0.0247,0,0,0.0474,0.0496,0.0501,0.0523,0.0525,0.0536,0.0545,0.0552,0.0571,0.0528,0.0542,0.0491,0.0461,0.0442,0.04,0.0368,0.0344,0.0326,0.0323,0.0298,0.0271,0.0275,0.027,0.0322,0.0322,0.0322,0.0238,0,0.0515,0.0567,0.0565,0.0616,0.0644,0.0622,0.0641,0.0639,0.0628,0.0631,0.057,0.0565,0.0501,0.0491,0.045,0.0377,0.0337,0.0369,0.0246,0.0242,0.025,0.0267,0.0322,0.0254,0.0233,0.0232,0.0232,0,0.0558,0.0592,0.065,0.0693,0.0703,0.0724,0.0753,0.077,0.0759,0.0749,0.0723,0.0675,0.0628,0.0564,0.0447,0.0472,0.0378,0.0309,0.0304,0.0282,0.0239,0.0228,0.0247,0.0144,0.0225,0.0226,0.0226,0,0.0599,0.0652,0.0704,0.0718,0.0758,0.0775,0.0796,0.0806,0.084,0.0828,0.084,0.0771,0.0743,0.062,0.0477,0.0461,0.0343,0.03,0.021,0.0208,0.0219,0.022,0.0133,0.0208,0.0208,0.0208,0.0209,0,0.0648,0.0689,0.0728,0.0758,0.0827,0.0832,0.0903,0.0907,0.0936,0.0999,0.091,0.0928,0.0755,0.0665,0.0514,0.0365,0.0369,0.0224,0.0193,0.0245,0.0249,0.0129,0.0067,0.0205,0.0206,0.0207,0.0207,0,0.0683,0.0705,0.0772,0.0825,0.0848,0.0899,0.0979,0.1035,0.1043,0.1115,0.1114,0.105,0.0943,0.076,0.0572,0.0431,0.0221,0.0211,0.0284,0.0264,0.0084,0.0024,-0.0091,-0.0143,0.0097,0.0096,0.0096,0,0.0706,0.0743,0.0824,0.0874,0.09,0.0979,0.1041,0.1086,0.1158,0.1201,0.1243,0.1158,0.1135,0.0858,0.0603,0.0351,0.0222,0.0214,0.0187,0.0091,0.0001,-0.0036,-0.0074,0.022,0.022,0.0221,0.0222,0,0.0754,0.0777,0.0834,0.0937,0.1011,0.111,0.1202,0.1277,0.1345,0.1407,0.1473,0.1454,0.1208,0.1008,0.0662,0.0466,0.0174,0.0218,0.0101,0.0083,0.0054,-0.0015,0.0247,0.0227,0.0227,0.0226,0.0226,0.0226,0.0786,0.0834,0.0908,0.1008,0.11,0.1225,0.1322,0.1434,0.1566,0.1694,0.1667,0.1716,0.1414,0.0963,0.0657,0.0213,0.0197,0.0097,0.0028,-0.0004,-0.0032,0.0244,0.0202,0.0201,0.0201,0.02,0.02,0,0.0828,0.0885,0.0977,0.1099,0.1209,0.1253,0.1421,0.1536,0.1707,0.1866,0.1946,0.192,0.1509,0.1063,0.0463,0.0118,-0.0028,-0.0066,-0.0107,-0.0144,0.0091,0.0119,0.0081,0.0081,0.0081,0.0081,0.0081,0.0081,0.0851,0.0939,0.0988,0.1166,0.1259,0.1421,0.1526,0.1702,0.1863,0.2115,0.2254,0.2334,0.2097,0.0917,0.0162,-0.0037,-0.0261,-0.0305,-0.0439,-0.0275,-0.0265,-0.0256,-0.0243,-0.0357,-0.0358,-0.0611,-0.0614,-0.0616]}],[{"header":{"parameterUnit":"m.s-1","parameterCategory":2,"la1":30.2991,"la2":30.254,"lo1":-89.0895,"lo2":-89.0444,"dy":0.0017,"dx":0.0017,"nx":28,"ny":28,"refTime":"2025-04-06T03:00:00:Z","depth":"2","parameterNumber":2,"parameterNumberName":"U-component_of_CURRENTS"},"data":[0,0,0,0,0,0,0,0,0,0,0,0,0,0,0,0,0,0,0,0,0,0,0,0,0,0,0,0,0,0,0,0,0,0,0,0,0,0,0,0,0,0,0,0,0,0,0,0,0,0,0,0,0,0,0,0,0,0,0.2703,0.2703,0,0.2723,0.2723,0.2723,0.2717,0.2716,0.2716,0.2716,0.272,0.272,0.272,0,0,0,0,0,0,0,0,0,0,0,0,0,0.2672,0.2673,0.2703,0.2703,0.2703,0.2723,0.2723,0.2723,0.2717,0.2716,0.2716,0.2716,0.272,0.272,0.272,0,0,0,0,0,0,0,0,0,0,0,0,0,0.2687,0.2673,0.2703,0.2704,0.2704,0.2723,0.2723,0.2723,0.2717,0.2716,0.2716,0.2715,0.2719,0.272,0.272,0.2732,0,0,0.2722,0.2722,0,0,0,0,0,0,0,0,0.2686,0.2687,0.2703,0.2704,0.2704,0.2719,0.2714,0.2726,0.2717,0.271,0.2716,0.2715,0.2719,0.272,0.2722,0.2732,0.2732,0.2722,0.2722,0.2723,0.2723,0,0,0,0,0,0,0,0.2685,0.2687,0.2709,0.2704,0.2705,0.2709,0.271,0.2716,0.2715,0.271,0.2711,0.2716,0.2719,0.2722,0.2722,0.2732,0.2722,0.2723,0.2723,0.2723,0.2791,0.2792,0,0,0,0,0,0,0.2686,0.2686,0.2708,0.271,0.2696,0.271,0.2711,0.2713,0.2715,0.2716,0.2716,0.2716,0.2721,0.2722,0.2722,0.2764,0.2723,0.2723,0.2723,0.2789,0.2791,0.2793,0,0,0,0,0,0,0.2685,0.2688,0.2707,0.27,0.2703,0.2711,0.2713,0.2714,0.2722,0.272,0.272,0.2726,0.2721,0.2721,0.2741,0.2763,0.2723,0.2724,0.2788,0.279,0.2792,0.283,0,0,0,0,0,0,0.2684,0.2687,0.269,0.27,0.2703,0.2726,0.2714,0.2714,0.2727,0.2726,0.2728,0.2727,0.272,0.274,0.2741,0.2763,0.2724,0.2786,0.2789,0.2791,0.2827,0.2834,0.2839,0,0,0,0,0,0.2683,0.2689,0.269,0.2693,0.2707,0.2727,0.273,0.2732,0.2728,0.2737,0.2741,0.2728,0.2759,0.2742,0.2743,0.2765,0.2784,0.2788,0.2791,0.2825,0.2832,0.2839,0,0,0,0,0,0,0.2675,0.2689,0.269,0.2699,0.2716,0.2727,0.2736,0.2739,0.275,0.275,0.2743,0.2744,0.2772,0.2766,0.2748,0.2795,0.2771,0.2775,0.2796,0.2803,0.2809,0.2816,0.2725,0,0,0,0,0,0.2676,0.2684,0.27,0.2709,0.2719,0.273,0.2738,0.2744,0.2754,0.2758,0.276,0.2768,0.2786,0.2792,0.2803,0.2825,0.2834,0.2843,0.2849,0.2854,0.2862,0.2903,0.2913,0.2804,0.2804,0.2804,0,0,0.2674,0.2685,0.2689,0.2709,0.272,0.274,0.2734,0.2754,0.2771,0.2758,0.278,0.2789,0.2798,0.2826,0.2838,0.2823,0.289,0.2858,0.2862,0.2868,0.2908,0.2918,0.2928,0.2806,0.2805,0.2805,0,0,0.2679,0.2688,0.2698,0.2716,0.274,0.2752,0.2761,0.278,0.2789,0.2813,0.2815,0.284,0.2854,0.2872,0.2881,0.2928,0.2922,0.2932,0.2963,0.3003,0.3012,0.302,0.3041,0.3051,0.2932,0.2932,0.2932,0,0.2678,0.269,0.2705,0.2724,0.2739,0.276,0.2778,0.2798,0.282,0.2839,0.2825,0.2878,0.2879,0.2929,0.2943,0.2942,0.2957,0.2932,0.301,0.3019,0.3026,0.3046,0.3056,0.2934,0.2934,0.2934,0.2933,0,0.2691,0.2704,0.2715,0.2744,0.2766,0.2786,0.2817,0.2842,0.2855,0.2877,0.2927,0.2936,0.2969,0.2976,0.2971,0.3033,0.3024,0.3014,0.2989,0.304,0.3057,0.3067,0.2937,0.2936,0.2936,0.2935,0,0,0.2671,0.2714,0.2716,0.273,0.2776,0.2791,0.2837,0.2883,0.2919,0.2946,0.2991,0.3026,0.3041,0.3054,0.3059,0.3088,0.3148,0.3075,0.3076,0.309,0.323,0.3204,0.3212,0.3154,0.3156,0.3158,0.3217,0,0.2673,0.27,0.2727,0.2758,0.2775,0.2817,0.2858,0.2907,0.2948,0.3,0.3035,0.308,0.3069,0.3088,0.3122,0.3148,0.3178,0.3133,0.3183,0.3185,0.3152,0.3224,0.296,0.2989,0.3227,0.3229,0.323,0,0.2667,0.2689,0.2713,0.2763,0.2775,0.2801,0.2871,0.2914,0.3004,0.3043,0.3107,0.3134,0.3199,0.317,0.325,0.3224,0.3233,0.3243,0.3245,0.3216,0.3178,0.2979,0.2998,0.3246,0.3245,0.3244,0.3243,0,0.2627,0.2674,0.2688,0.2704,0.277,0.2792,0.2834,0.2923,0.2972,0.3076,0.312,0.3204,0.3242,0.3283,0.3312,0.3288,0.3389,0.3354,0.3339,0.3336,0.3119,0.3094,0.3408,0.3408,0.3408,0.3408,0.3407,0,0.2609,0.2619,0.2668,0.2675,0.2707,0.2765,0.282,0.2886,0.2985,0.3052,0.3136,0.32,0.3273,0.3334,0.3347,0.3388,0.3423,0.3365,0.3363,0.3125,0.3102,0.3327,0.3316,0.341,0.3409,0.3409,0.3408,0,0.2559,0.259,0.2609,0.2667,0.2686,0.2708,0.2798,0.2841,0.2951,0.3039,0.3073,0.3214,0.3309,0.3367,0.3444,0.343,0.3468,0.3464,0.318,0.3144,0.3373,0.3364,0.3456,0.3456,0.3456,0.3456,0.3456,0,0.2535,0.2538,0.2585,0.2592,0.2614,0.2661,0.2694,0.281,0.2864,0.3042,0.3075,0.321,0.3292,0.3412,0.3411,0.3443,0.3491,0.3214,0.3125,0.3397,0.3385,0.3376,0.3368,0.284,0.2835,0.2831,0.2828,0,0.2492,0.2504,0.2518,0.2536,0.2556,0.2587,0.2645,0.2686,0.2827,0.2908,0.3031,0.3114,0.3243,0.3186,0.3249,0.3223,0.3192,0.3134,0.3494,0.2886,0.2826,0.2811,0.2821,0.279,0.2794,0.2797,0.2799,0.28,0.2452,0.2445,0.246,0.2467,0.2486,0.2496,0.2496,0.257,0.2642,0.2727,0.289,0.2923,0.2991,0.2966,0.2892,0.2828,0.3049,0.2906,0.2914,0.2927,0.2863,0.2808,0.2755,0.2758,0.2761,0.2764,0.2766,0,0.239,0.2388,0.2391,0.2384,0.2358,0.2408,0.2443,0.2415,0.2443,0.2552,0.2626,0.2471,0.2468,0.2519,0.2377,0.2403,0.2315,0.2297,0.2156,0.2198,0.2235,0.2129,0.1829,0.1825,0.1822,0.1819,0,0,0.2357,0.2324,0.2318,0.2251,0.2247,0.2181,0.2178,0.2157,0.2192,0.2173,0.2172,0.2363,0.2475,0.2122,0.2093,0.1936,0.2034,0.1851,0.2614,0.2493,0.2524,0.2615,0.2506,0,0,0,0,0]},{"header":{"parameterUnit":"m.s-1","parameterCategory":2,"la1":30.2991,"la2":30.254,"lo1":-89.0895,"lo2":-89.0444,"dy":0.0017,"dx":0.0017,"nx":28,"ny":28,"refTime":"2025-04-06T03:00:00:Z","depth":"2","parameterNumber":3,"parameterNumberName":"V-component_of_CURRENTS"},"data":[0,0,0,0,0,0,0,0,0,0,0,0,0,0,0,0,0,0,0,0,0,0,0,0,0,0,0,0,0,0,0,0,0,0,0,0,0,0,0,0,0,0,0,0,0,0,0,0,0,0,0,0,0,0,0,0,0,0,0.0251,0.025,0,0.0207,0.0206,0.0206,0.0174,0.0174,0.0174,0.0173,0.011,0.0109,0.0107,0,0,0,0,0,0,0,0,0,0,0,0,0,0.0261,0.0262,0.0251,0.025,0.025,0.0207,0.0206,0.0205,0.0174,0.0174,0.0174,0.0173,0.0111,0.0109,0.0107,0,0,0,0,0,0,0,0,0,0,0,0,0,0.024,0.0262,0.0251,0.023,0.0228,0.0207,0.0206,0.0205,0.0174,0.0174,0.0174,0.0173,0.0112,0.0109,0.0107,0.0097,0,0,0.01,0.0099,0,0,0,0,0,0,0,0,0.0241,0.024,0.0233,0.0231,0.0229,0.0197,0.0187,0.0169,0.0174,0.0193,0.0173,0.0173,0.0139,0.0134,0.0125,0.0094,0.0091,0.01,0.0098,0.0097,0.0097,0,0,0,0,0,0,0,0.0243,0.0241,0.0232,0.0233,0.023,0.0207,0.0204,0.0183,0.0166,0.0191,0.0189,0.0186,0.0137,0.0127,0.0123,0.009,0.01,0.0098,0.0096,0.0095,0.0054,0.0055,0,0,0,0,0,0,0.0254,0.0243,0.0233,0.0231,0.0236,0.0207,0.0204,0.0206,0.0167,0.0161,0.0187,0.0185,0.0131,0.0126,0.0121,0.0127,0.0097,0.0095,0.0094,0.0054,0.0054,0.0055,0,0,0,0,0,0,0.0254,0.0254,0.0235,0.0236,0.0233,0.0208,0.021,0.0205,0.02,0.0164,0.0157,0.0187,0.0131,0.0124,0.011,0.0123,0.0094,0.0092,0.0054,0.0054,0.0055,0.0126,0,0,0,0,0,0,0.0255,0.0254,0.0258,0.0237,0.0233,0.0233,0.0211,0.0205,0.0199,0.0196,0.0161,0.0155,0.013,0.0114,0.0108,0.012,0.009,0.0053,0.0054,0.0054,0.0123,0.0129,0.0133,0,0,0,0,0,0.0255,0.0268,0.0259,0.0257,0.024,0.0234,0.023,0.021,0.0199,0.0202,0.0178,0.0156,0.0113,0.0112,0.0105,0.0117,0.0053,0.0054,0.0054,0.0121,0.0128,0.0133,0,0,0,0,0,0,0.0274,0.0265,0.0255,0.0263,0.0253,0.0229,0.023,0.0216,0.0199,0.0196,0.0161,0.0153,0.0144,0.012,0.012,0.0105,0.0079,0.0078,0.0132,0.0138,0.0143,0.0159,0.0088,0,0,0,0,0,0.0281,0.0288,0.0272,0.0279,0.0276,0.0253,0.0247,0.0236,0.0219,0.0211,0.0187,0.016,0.014,0.0132,0.0108,0.0103,0.0072,0.0104,0.0109,0.0114,0.0121,0.0088,0.0091,0.0057,0.0057,0.0057,0,0,0.0289,0.0285,0.0288,0.0283,0.0271,0.0281,0.0249,0.0248,0.0256,0.0207,0.0207,0.0176,0.0142,0.0135,0.0129,0.0118,0.0106,0.0114,0.0119,0.0124,0.0089,0.0092,0.0095,0.0057,0.0057,0.0057,0,0,0.0315,0.0307,0.0323,0.032,0.0312,0.0301,0.0306,0.0287,0.0278,0.0273,0.024,0.022,0.019,0.017,0.0156,0.0174,0.0132,0.0165,0.0209,0.0176,0.0179,0.0181,0.0145,0.0143,0.0171,0.0171,0.0171,0,0.0326,0.0346,0.0326,0.0342,0.0349,0.0317,0.034,0.0327,0.0307,0.0307,0.0283,0.024,0.0207,0.0204,0.0208,0.0187,0.016,0.0191,0.0184,0.0186,0.0187,0.0149,0.0146,0.0175,0.0174,0.0174,0.0174,0,0.0366,0.0381,0.0391,0.0405,0.0408,0.0421,0.0407,0.0402,0.0384,0.0374,0.036,0.031,0.0288,0.0271,0.0245,0.024,0.0215,0.0194,0.0173,0.0195,0.0153,0.0149,0.018,0.0178,0.0177,0.0176,0,0,0.0396,0.0417,0.0422,0.0443,0.0445,0.0456,0.0464,0.0471,0.0489,0.0448,0.0461,0.0413,0.0384,0.0365,0.0325,0.0293,0.0269,0.0253,0.0249,0.0225,0.0196,0.0197,0.0192,0.0248,0.0248,0.0247,0.0164,0,0.0435,0.0486,0.0483,0.0532,0.0559,0.0539,0.0556,0.0555,0.0544,0.0546,0.0488,0.0483,0.0422,0.0414,0.0373,0.0301,0.0262,0.0294,0.0172,0.0168,0.0173,0.0189,0.0197,0.0126,0.016,0.0159,0.0159,0,0.0477,0.051,0.0566,0.0607,0.0617,0.0638,0.0666,0.0681,0.067,0.0661,0.0636,0.059,0.0543,0.0482,0.0367,0.0392,0.0301,0.0233,0.0228,0.0204,0.0162,0.0108,0.0116,0.0151,0.0151,0.0152,0.0153,0,0.0518,0.0568,0.0619,0.0633,0.067,0.0688,0.0708,0.0717,0.075,0.0738,0.075,0.0682,0.0654,0.0535,0.0396,0.0381,0.0262,0.0221,0.0132,0.013,0.0101,0.0098,0.0131,0.0131,0.0131,0.0131,0.0132,0,0.0565,0.0605,0.0642,0.0672,0.074,0.0744,0.0813,0.0817,0.0844,0.0903,0.0818,0.0834,0.0666,0.0577,0.043,0.0282,0.0287,0.0145,0.0114,0.0125,0.0126,0.0118,0.0118,0.0128,0.0129,0.013,0.013,0,0.06,0.0622,0.0686,0.0738,0.076,0.0811,0.0888,0.0942,0.095,0.1018,0.1018,0.0952,0.0846,0.0667,0.0482,0.0344,0.0188,0.0128,0.0154,0.0129,0.0062,0.0066,0.0016,0.0015,0.0015,0.0014,0.0014,0,0.0623,0.0659,0.0738,0.0787,0.0813,0.089,0.095,0.0993,0.1062,0.11,0.114,0.1055,0.1025,0.0751,0.0495,0.0246,0.0203,0.0078,0.0048,0.0078,0.0052,0.0057,0.0062,0.0026,0.0025,0.0025,0.0025,0,0.067,0.0693,0.0748,0.085,0.0921,0.1017,0.1106,0.1177,0.1241,0.1297,0.1355,0.1332,0.108,0.0842,0.0499,0.0318,0.012,0.0067,0.0091,0.0067,0.0085,0.0061,0.0065,0.0024,0.0024,0.0024,0.0024,0.0024,0.0702,0.0749,0.0821,0.0919,0.1009,0.1129,0.1222,0.1322,0.1443,0.1535,0.1513,0.1481,0.1193,0.0767,0.0452,0.0114,0.0137,-0.0,0.0001,0.0002,0.0032,0.005,-0.0013,-0.0014,-0.0014,-0.0014,-0.0014,0,0.074,0.0799,0.0888,0.1007,0.111,0.1158,0.1318,0.1405,0.1554,0.164,0.1688,0.1409,0.1138,0.0799,0.0313,0.0029,-0.0016,-0.0083,-0.0073,-0.0068,-0.0065,-0.0039,-0.0104,-0.0105,-0.0106,-0.0107,0,0,0.0761,0.0845,0.0893,0.1064,0.1159,0.1306,0.1406,0.1529,0.1621,0.17,0.1697,0.1652,0.1255,0.0878,0.0478,0.0195,0.0124,0.0123,0.0228,0.0294,0.03,0.0017,0.0067,0,0,0,0,0]}],[{"header":{"parameterUnit":"m.s-1","parameterCategory":2,"la1":30.2991,"la2":30.254,"lo1":-89.0895,"lo2":-89.0444,"dy":0.0017,"dx":0.0017,"nx":28,"ny":28,"refTime":"2025-04-06T03:00:00:Z","depth":"4","parameterNumber":2,"parameterNumberName":"U-component_of_CURRENTS"},"data":[0,0,0,0,0,0,0,0,0,0,0,0,0,0,0,0,0,0,0,0,0,0,0,0,0,0,0,0,0,0,0,0,0,0,0,0,0,0,0,0,0,0,0,0,0,0,0,0,0,0,0,0,0,0,0,0,0,0,0.1813,0.1814,0,0.1865,0.1865,0.1866,0.1915,0.1916,0.1916,0.1917,0.1991,0.1993,0.1994,0,0,0,0,0,0,0,0,0,0,0,0,0,0.175,0.1751,0.1813,0.1814,0.1815,0.1865,0.1865,0.1866,0.1915,0.1916,0.1917,0.1918,0.1991,0.1992,0.1994,0,0,0,0,0,0,0,0,0,0,0,0,0,0.1786,0.1751,0.1813,0.1847,0.185,0.1865,0.1865,0.1866,0.1915,0.1916,0.1917,0.1918,0.199,0.1992,0.1994,0.1982,0,0,0.2,0.2001,0,0,0,0,0,0,0,0,0.1784,0.1788,0.1841,0.1844,0.1848,0.1886,0.187,0.1907,0.1914,0.1888,0.1917,0.1919,0.1958,0.1963,0.1967,0.1986,0.1989,0.2,0.2001,0.2002,0.2002,0,0,0,0,0,0,0,0.1781,0.1786,0.1832,0.1842,0.1846,0.1857,0.1863,0.1877,0.1915,0.1891,0.1895,0.1903,0.1961,0.1965,0.197,0.199,0.2,0.2002,0.2003,0.2003,0.2121,0.2123,0,0,0,0,0,0,0.1777,0.1783,0.183,0.1834,0.182,0.1857,0.1864,0.1871,0.1915,0.1923,0.1902,0.1905,0.1962,0.1967,0.1972,0.2063,0.2002,0.2004,0.2005,0.2119,0.2121,0.2123,0,0,0,0,0,0,0.1776,0.1781,0.1828,0.1811,0.1818,0.1857,0.1865,0.1872,0.1915,0.1923,0.1932,0.1943,0.1963,0.197,0.2023,0.2062,0.2005,0.2006,0.2116,0.2119,0.2122,0.2179,0,0,0,0,0,0,0.1774,0.178,0.1803,0.1811,0.1819,0.1861,0.1864,0.1872,0.1917,0.1923,0.1961,0.1966,0.1964,0.202,0.2024,0.2064,0.2008,0.2114,0.2118,0.2121,0.2174,0.2183,0.2191,0,0,0,0,0,0.1771,0.179,0.1803,0.181,0.1843,0.1862,0.1868,0.1898,0.1918,0.1941,0.1973,0.1967,0.2047,0.2023,0.2028,0.2069,0.2112,0.2117,0.2121,0.2171,0.2181,0.2191,0,0,0,0,0,0,0.1776,0.1798,0.1812,0.1838,0.1862,0.1872,0.1902,0.1919,0.1961,0.1981,0.1988,0.1996,0.2057,0.2057,0.203,0.2115,0.2081,0.2086,0.2117,0.2127,0.2135,0.2135,0.2009,0,0,0,0,0,0.1786,0.1811,0.1827,0.1855,0.1869,0.1893,0.1913,0.1933,0.1961,0.1983,0.2009,0.2042,0.2072,0.2096,0.2118,0.2162,0.2162,0.2194,0.2202,0.2209,0.2214,0.2254,0.2266,0.2138,0.2138,0.2138,0,0,0.1797,0.1813,0.1829,0.1859,0.1881,0.1905,0.1909,0.195,0.1981,0.1983,0.2049,0.2073,0.2091,0.2142,0.217,0.2152,0.2247,0.2215,0.2221,0.2222,0.226,0.2273,0.2284,0.2141,0.214,0.214,0,0,0.1815,0.1846,0.1868,0.189,0.1929,0.1942,0.1963,0.1996,0.2029,0.2081,0.2097,0.2147,0.2192,0.2213,0.2227,0.2295,0.2289,0.2312,0.2355,0.2395,0.2405,0.2414,0.2429,0.2439,0.2317,0.2317,0.2317,0,0.1831,0.1855,0.1879,0.1903,0.1927,0.1963,0.1989,0.2022,0.2073,0.2106,0.2115,0.2205,0.2222,0.2282,0.231,0.2314,0.2329,0.2313,0.2404,0.2414,0.2422,0.2434,0.2445,0.232,0.232,0.232,0.2319,0,0.1849,0.1884,0.1902,0.1942,0.1972,0.2005,0.2043,0.2092,0.2138,0.217,0.2253,0.2282,0.2336,0.2354,0.2354,0.243,0.2419,0.2408,0.2375,0.2438,0.2447,0.2457,0.2325,0.2324,0.2323,0.2322,0,0,0.1835,0.1901,0.191,0.1937,0.1997,0.2017,0.2083,0.2141,0.2195,0.2258,0.2323,0.2386,0.2419,0.2437,0.2454,0.249,0.2561,0.2483,0.2484,0.2489,0.2643,0.2477,0.2472,0.2574,0.2576,0.2578,0.2623,0,0.1843,0.1888,0.1923,0.1978,0.2001,0.206,0.2114,0.218,0.2243,0.2318,0.2374,0.2444,0.2446,0.2487,0.2527,0.2558,0.2591,0.2549,0.2587,0.2588,0.2427,0.2479,0.2584,0.263,0.2632,0.2634,0.2635,0,0.1835,0.1869,0.192,0.1993,0.2012,0.2058,0.2153,0.2209,0.2318,0.2376,0.246,0.2504,0.2587,0.257,0.2657,0.2637,0.2649,0.266,0.2661,0.2492,0.244,0.2556,0.2652,0.2651,0.265,0.2648,0.2647,0,0.1786,0.1861,0.1904,0.1928,0.2019,0.2068,0.2128,0.2234,0.2294,0.2424,0.2481,0.2579,0.2639,0.2684,0.2717,0.2703,0.2791,0.2766,0.2624,0.2613,0.2722,0.2712,0.2819,0.2818,0.2818,0.2818,0.2818,0,0.1753,0.1792,0.1892,0.1913,0.1978,0.2054,0.214,0.222,0.2338,0.2406,0.2514,0.2569,0.2675,0.2731,0.2747,0.2713,0.2819,0.2635,0.2616,0.2744,0.2736,0.2728,0.2717,0.282,0.282,0.2819,0.2819,0,0.1685,0.1753,0.1807,0.1916,0.1955,0.2005,0.2137,0.2189,0.2321,0.2412,0.2458,0.2591,0.2662,0.2731,0.2804,0.2728,0.2725,0.2685,0.2819,0.2806,0.2511,0.2503,0.252,0.2514,0.251,0.2506,0.2503,0,0.1649,0.1673,0.1795,0.183,0.1886,0.1976,0.2029,0.217,0.2223,0.2398,0.2419,0.2544,0.2612,0.2574,0.267,0.2678,0.2649,0.2617,0.2555,0.2501,0.2483,0.2481,0.2479,0.2496,0.2494,0.2493,0.2492,0,0.158,0.1642,0.1688,0.1762,0.1826,0.1884,0.1974,0.1996,0.2148,0.2284,0.2318,0.2351,0.2421,0.2469,0.2493,0.2498,0.262,0.2568,0.2577,0.2519,0.2472,0.2458,0.2461,0.2476,0.2478,0.248,0.2481,0,0.1535,0.1549,0.1621,0.1668,0.1743,0.1759,0.1824,0.1872,0.1939,0.2119,0.2131,0.2264,0.2396,0.2377,0.2406,0.2393,0.2352,0.2258,0.2282,0.23,0.2208,0.2116,0.1996,0,0,0,0,0,0.1476,0.1476,0.1517,0.1553,0.1619,0.1665,0.1766,0.1832,0.1973,0.1938,0.2026,0.208,0.2116,0.2194,0.2136,0.2321,0.237,0.2244,0.2276,0.2388,0.2407,0.2319,0,0,0,0,0,0,0.1433,0.1471,0.1475,0.1443,0.145,0.1505,0.1566,0.1664,0.1651,0.1804,0.1837,0.195,0.2024,0.2128,0.2097,0.2119,0.2093,0.2334,0.2328,0.2378,0.2395,0.2409,0.2325,0,0,0,0,0]},{"header":{"parameterUnit":"m.s-1","parameterCategory":2,"la1":30.2991,"la2":30.254,"lo1":-89.0895,"lo2":-89.0444,"dy":0.0017,"dx":0.0017,"nx":28,"ny":28,"refTime":"2025-04-06T03:00:00:Z","depth":"4","parameterNumber":3,"parameterNumberName":"V-component_of_CURRENTS"},"data":[0,0,0,0,0,0,0,0,0,0,0,0,0,0,0,0,0,0,0,0,0,0,0,0,0,0,0,0,0,0,0,0,0,0,0,0,0,0,0,0,0,0,0,0,0,0,0,0,0,0,0,0,0,0,0,0,0,0,0.0112,0.0112,0,0.0086,0.0086,0.0085,0.0064,0.0064,0.0064,0.0064,0.002,0.0019,0.0018,0,0,0,0,0,0,0,0,0,0,0,0,0,0.0118,0.0118,0.0112,0.0112,0.0112,0.0086,0.0086,0.0085,0.0064,0.0064,0.0064,0.0064,0.002,0.0019,0.0018,0,0,0,0,0,0,0,0,0,0,0,0,0,0.0105,0.0118,0.0112,0.0099,0.0097,0.0086,0.0086,0.0085,0.0064,0.0064,0.0064,0.0063,0.002,0.0019,0.0017,0.0012,0,0,0.0013,0.0012,0,0,0,0,0,0,0,0,0.0106,0.0105,0.0101,0.0099,0.0098,0.0079,0.0072,0.006,0.0064,0.0076,0.0064,0.0063,0.0038,0.0035,0.003,0.001,0.0008,0.0013,0.0012,0.0011,0.001,0,0,0,0,0,0,0,0.0107,0.0106,0.0101,0.0101,0.0099,0.0085,0.0083,0.0069,0.0058,0.0075,0.0073,0.0072,0.0037,0.0032,0.0029,0.0008,0.0013,0.0011,0.001,0.001,-0.0009,-0.0008,0,0,0,0,0,0,0.0113,0.0107,0.0102,0.01,0.0102,0.0085,0.0083,0.0084,0.0058,0.0054,0.0072,0.0071,0.0034,0.0031,0.0027,0.004,0.0011,0.0009,0.0009,-0.0009,-0.0009,-0.0008,0,0,0,0,0,0,0.0114,0.0113,0.0103,0.0103,0.0101,0.0086,0.0087,0.0084,0.0082,0.0057,0.0052,0.0074,0.0034,0.0029,0.0023,0.0037,0.0009,0.0007,-0.001,-0.0009,-0.0008,0.0051,0,0,0,0,0,0,0.0114,0.0114,0.0118,0.0104,0.0101,0.0104,0.0087,0.0084,0.0082,0.008,0.0057,0.0052,0.0034,0.0026,0.0022,0.0034,0.0006,-0.001,-0.0009,-0.0009,0.0049,0.0054,0.0058,0,0,0,0,0,0.0114,0.0124,0.0118,0.0118,0.0108,0.0105,0.0103,0.009,0.0082,0.0087,0.0071,0.0053,0.0028,0.0025,0.002,0.0032,-0.0011,-0.001,-0.0009,0.0047,0.0053,0.0058,0,0,0,0,0,0,0.0127,0.0122,0.0116,0.0123,0.0117,0.0102,0.0104,0.0095,0.0086,0.0085,0.0059,0.0054,0.0052,0.0034,0.0031,0.0029,0.0005,0.0005,0.0049,0.0055,0.0059,0.0069,0.0005,0,0,0,0,0,0.0132,0.0139,0.0129,0.0135,0.0134,0.012,0.0118,0.0111,0.01,0.0096,0.008,0.0063,0.0052,0.0047,0.0031,0.0033,0.0005,0.0036,0.0041,0.0045,0.0049,0.0018,0.0021,-0.0005,-0.0005,-0.0005,0,0,0.0139,0.0137,0.014,0.0139,0.0133,0.0142,0.0119,0.012,0.013,0.0093,0.01,0.0078,0.0054,0.0055,0.0053,0.0043,0.0038,0.0047,0.0051,0.0052,0.002,0.0022,0.0024,-0.0004,-0.0004,-0.0004,0,0,0.0158,0.0154,0.0167,0.0167,0.0165,0.0159,0.0163,0.0153,0.015,0.0151,0.0128,0.0116,0.01,0.0087,0.0078,0.0099,0.0062,0.0094,0.013,0.0101,0.0102,0.0104,0.0073,0.0071,0.01,0.01,0.01,0,0.0166,0.0182,0.017,0.0184,0.0192,0.0172,0.0192,0.0186,0.0176,0.0179,0.0161,0.0137,0.0114,0.0117,0.0124,0.011,0.0086,0.0113,0.0107,0.0108,0.0108,0.0076,0.0074,0.0103,0.0103,0.0103,0.0102,0,0.0194,0.0209,0.0218,0.0233,0.0239,0.0252,0.0247,0.0248,0.024,0.0235,0.023,0.0196,0.0183,0.0173,0.0155,0.0153,0.0133,0.0115,0.0095,0.0114,0.008,0.0076,0.0108,0.0107,0.0106,0.0105,0,0,0.021,0.0234,0.0239,0.0259,0.0268,0.0279,0.0293,0.0305,0.0323,0.0298,0.0311,0.0282,0.0261,0.0249,0.0221,0.0195,0.0174,0.0162,0.0159,0.0136,0.0107,0.0096,0.009,0.0155,0.0154,0.0154,0.0083,0,0.0238,0.0281,0.0284,0.0329,0.0352,0.0345,0.0366,0.0372,0.037,0.0376,0.0335,0.0337,0.0293,0.029,0.0256,0.0197,0.0165,0.0194,0.0088,0.0085,0.0076,0.0086,0.0153,0.008,0.0079,0.0078,0.0077,0,0.0266,0.0295,0.0344,0.0386,0.0396,0.042,0.0453,0.0473,0.0472,0.0469,0.0453,0.0421,0.0387,0.034,0.0245,0.0266,0.0194,0.0138,0.0133,0.01,0.0067,0.0054,0.0069,0.007,0.0071,0.0071,0.0072,0,0.0288,0.0336,0.0381,0.0396,0.0437,0.0459,0.0485,0.0503,0.0534,0.0534,0.0545,0.0492,0.0473,0.0375,0.0261,0.0254,0.0146,0.0118,0.0036,0.0034,0.0038,0.0037,0.0042,0.0042,0.0042,0.0043,0.0043,0,0.0316,0.0353,0.0398,0.0424,0.0487,0.0502,0.0568,0.0579,0.061,0.0657,0.0602,0.0608,0.048,0.0402,0.0284,0.0154,0.0161,0.0043,0.0016,0.0065,0.0068,0.0035,0.0035,0.004,0.0041,0.0041,0.0042,0,0.0332,0.0359,0.0417,0.0474,0.05,0.0547,0.0629,0.0675,0.0695,0.0748,0.0751,0.0698,0.06,0.0461,0.0305,0.0197,0.0065,0.0012,0.0082,0.0059,-0.0037,-0.0033,-0.0087,-0.0088,-0.0089,-0.009,-0.009,0,0.0343,0.0373,0.0455,0.05,0.0531,0.0607,0.0664,0.0714,0.0767,0.0802,0.0824,0.0753,0.0695,0.0474,0.0316,0.0093,0.0052,-0.0024,-0.0042,-0.0028,-0.0049,-0.0044,-0.0039,-0.0092,-0.0092,-0.0092,-0.0092,0,0.0363,0.0392,0.0441,0.0534,0.0604,0.0689,0.0771,0.0815,0.0875,0.0892,0.0889,0.0778,0.0666,0.0484,0.0316,0.015,0.0022,-0.0034,-0.0034,-0.0051,-0.0034,-0.0053,-0.0047,-0.0095,-0.0095,-0.0094,-0.0094,0,0.0377,0.0413,0.0479,0.0563,0.0654,0.0743,0.0789,0.0851,0.0904,0.0937,0.0934,0.0813,0.0751,0.0513,0.0357,0.0198,0.0142,0.007,0.0063,0.0064,0.0123,0.0167,0.0148,0,0,0,0,0,0.0387,0.0429,0.0505,0.0597,0.0689,0.0747,0.0848,0.0888,0.0943,0.095,0.0948,0.0844,0.0623,0.053,0.0369,0.0316,0.0099,0.0117,0.0009,-0.011,-0.0107,-0.0066,0,0,0,0,0,0,0.0392,0.0458,0.0498,0.061,0.0679,0.0786,0.0854,0.0895,0.0901,0.0929,0.0821,0.0781,0.057,0.0717,0.036,0.0312,0.0214,0.0023,0.0018,-0.0112,-0.0109,-0.0107,-0.0063,0,0,0,0,0]}]]